Powrót do katalogu

FALCON 9-510 STAGE 2

AktywnyMEO
NORAD 64868·ROCKET BODY·🇺🇸 United States
Ta nazwa satelity nie została jeszcze potwierdzona przez oficjalne źródła.

Wystrzelony Jul 22, 2025 z Cape Canaveral Space Force Station

Loading…

Następne Przeloty (najbliższe 24 godziny)

TLE

ŚwieżeSource: Space-Track

Epoka: Sep 14, 2026, 04:12 UTC

1 64868U 25153C   26257.17506022  .00000048  00000-0 -37898-3 0  9994
2 64868   9.7064 191.8388 1939673 312.5806  32.5968  7.32290295 30668

Śledź FALCON 9-510 STAGE 2 w czasie rzeczywistym z AllMySat

Download on the App Store